Location: Feigenhofen
(48.4939°N, 10.7793°E)
Time: 15:40:40
(UTC+00:00)

Cosmos 1674 Rocket - Pass Details

Date: 26 May 2022
Orbit: 603 x 629 km, 82.5° (Epoch: 28 June)

Event Time Altitude Azimuth Distance (km) Brightness Sun altitude
Exits shadow 00:06:59 43° 225° (SW) 864 3.9 -19.4°
Maximum altitude 00:08:10 60° 282° (WNW) 699 3.7 -19.4°
Drops below altitude 10° 00:12:28 10° 3° (N) 1,964 7.3 -19.2°
Sets 00:14:43 0° 7° (N) 2,870 8.6 -19.1°
